Time,TemperatureF,DewpointF,PressureIn,WindDirection,WindDirectionDegrees,WindSpeedMPH,WindSpeedGustMPH,Humidity,HourlyPrecipIn,Conditions,Clouds,dailyrainin,SoftwareType,DateUTC
2013-06-06 00:01:00,55.0,47.5,30.18,SSW,202,4.0,4.0,76,0.00,,,0.00,Rainwise IP-100,2013-06-06 04:01:00,
2013-06-06 00:06:00,55.0,46.0,30.18,South,180,0.0,4.0,71,0.00,,,0.00,Rainwise IP-100,2013-06-06 04:06:00,
2013-06-06 00:11:00,55.0,46.0,30.18,SW,225,2.0,6.0,71,0.00,,,0.00,Rainwise IP-100,2013-06-06 04:11:00,
2013-06-06 00:17:00,55.0,46.0,30.18,South,180,0.0,5.0,71,0.00,,,0.00,Rainwise IP-100,2013-06-06 04:17:00,
2013-06-06 00:22:00,55.0,47.5,30.18,SW,225,1.0,5.0,76,0.00,,,0.00,Rainwise IP-100,2013-06-06 04:22:00,
2013-06-06 00:27:00,55.0,46.0,30.18,SSW,202,1.0,6.0,71,0.00,,,0.00,Rainwise IP-100,2013-06-06 04:27:00,
2013-06-06 00:32:00,55.0,46.0,30.18,South,180,0.0,3.0,71,0.00,,,0.00,Rainwise IP-100,2013-06-06 04:32:00,
2013-06-06 00:37:00,55.0,46.0,30.18,South,180,0.0,5.0,71,0.00,,,0.00,Rainwise IP-100,2013-06-06 04:37:00,
2013-06-06 00:42:00,55.0,46.0,30.18,SW,225,3.0,5.0,71,0.00,,,0.00,Rainwise IP-100,2013-06-06 04:42:00,
2013-06-06 00:47:00,55.0,46.0,30.18,SSW,202,0.0,6.0,71,0.00,,,0.00,Rainwise IP-100,2013-06-06 04:47:00,
2013-06-06 00:52:00,55.0,46.0,30.18,SW,225,0.0,3.0,71,0.00,,,0.00,Rainwise IP-100,2013-06-06 04:52:00,
2013-06-06 00:57:00,55.0,46.0,30.18,SSW,202,2.0,6.0,71,0.00,,,0.00,Rainwise IP-100,2013-06-06 04:57:00,
2013-06-06 01:02:00,55.0,46.0,30.18,South,180,2.0,6.0,71,0.00,,,0.00,Rainwise IP-100,2013-06-06 05:02:00,
2013-06-06 01:07:00,55.0,46.0,30.18,South,180,1.0,6.0,70,0.00,,,0.00,Rainwise IP-100,2013-06-06 05:07:00,
2013-06-06 01:12:00,55.0,46.0,30.18,SW,225,1.0,6.0,71,0.00,,,0.00,Rainwise IP-100,2013-06-06 05:12:00,
2013-06-06 01:17:00,55.0,46.0,30.18,SSW,202,2.0,6.0,70,0.00,,,0.00,Rainwise IP-100,2013-06-06 05:17:00,
2013-06-06 01:22:00,55.0,46.0,30.18,SSW,202,0.0,6.0,70,0.00,,,0.00,Rainwise IP-100,2013-06-06 05:22:00,
2013-06-06 01:27:00,55.0,46.0,30.18,WSW,247,3.0,7.0,70,0.00,,,0.00,Rainwise IP-100,2013-06-06 05:27:00,
2013-06-06 01:33:00,55.0,46.0,30.18,South,180,2.0,5.0,70,0.00,,,0.00,Rainwise IP-100,2013-06-06 05:33:00,
2013-06-06 01:38:00,55.0,45.0,30.18,SSW,202,6.0,6.0,69,0.00,,,0.00,Rainwise IP-100,2013-06-06 05:38:00,
2013-06-06 01:43:00,55.0,46.0,30.18,SSW,202,3.0,7.0,70,0.00,,,0.00,Rainwise IP-100,2013-06-06 05:43:00,
2013-06-06 01:48:00,55.0,46.0,30.18,South,180,1.0,6.0,70,0.00,,,0.00,Rainwise IP-100,2013-06-06 05:48:00,
2013-06-06 01:53:00,55.0,46.0,30.18,SSE,157,0.0,6.0,70,0.00,,,0.00,Rainwise IP-100,2013-06-06 05:53:00,
2013-06-06 01:58:00,55.0,46.0,30.18,SSW,202,3.0,5.0,71,0.00,,,0.00,Rainwise IP-100,2013-06-06 05:58:00,
2013-06-06 02:03:00,55.0,46.0,30.17,South,180,4.0,5.0,71,0.00,,,0.00,Rainwise IP-100,2013-06-06 06:03:00,
2013-06-06 02:08:00,55.0,46.0,30.17,SW,225,0.0,6.0,71,0.00,,,0.00,Rainwise IP-100,2013-06-06 06:08:00,
2013-06-06 02:10:00,55.0,46.0,30.17,SSE,157,0.0,6.0,71,0.00,,,0.00,Rainwise IP-100,2013-06-06 06:10:00,
2013-06-06 02:15:00,55.0,46.0,30.17,SSW,202,0.0,3.0,71,0.00,,,0.00,Rainwise IP-100,2013-06-06 06:15:00,
2013-06-06 02:16:00,55.0,46.0,30.17,South,180,3.0,3.0,71,0.00,,,0.00,Rainwise IP-100,2013-06-06 06:16:00,
2013-06-06 02:21:00,55.0,46.0,30.17,South,180,0.0,7.0,71,0.00,,,0.00,Rainwise IP-100,2013-06-06 06:21:00,
2013-06-06 02:27:00,55.0,46.0,30.17,SW,225,0.0,4.0,71,0.00,,,0.00,Rainwise IP-100,2013-06-06 06:27:00,
2013-06-06 02:32:00,55.0,47.5,30.17,SW,225,0.0,5.0,76,0.00,,,0.00,Rainwise IP-100,2013-06-06 06:32:00,
2013-06-06 02:37:00,55.0,46.0,30.17,South,180,2.0,4.0,71,0.00,,,0.00,Rainwise IP-100,2013-06-06 06:37:00,
2013-06-06 02:42:00,55.0,46.0,30.17,SSW,202,3.0,5.0,70,0.00,,,0.00,Rainwise IP-100,2013-06-06 06:42:00,
2013-06-06 02:47:00,55.0,45.0,30.18,SSW,202,2.0,6.0,69,0.00,,,0.00,Rainwise IP-100,2013-06-06 06:47:00,
2013-06-06 02:52:00,55.0,45.0,30.18,SW,225,2.0,6.0,69,0.00,,,0.00,Rainwise IP-100,2013-06-06 06:52:00,
2013-06-06 02:57:00,55.0,45.0,30.18,South,180,3.0,6.0,68,0.00,,,0.00,Rainwise IP-100,2013-06-06 06:57:00,
2013-06-06 03:02:00,55.0,45.0,30.17,SW,225,3.0,6.0,68,0.00,,,0.00,Rainwise IP-100,2013-06-06 07:02:00,
2013-06-06 03:07:00,55.0,45.0,30.17,SSW,202,2.0,6.0,68,0.00,,,0.00,Rainwise IP-100,2013-06-06 07:07:00,
2013-06-06 03:12:00,55.0,44.0,30.17,SSW,202,4.0,6.0,67,0.00,,,0.00,Rainwise IP-100,2013-06-06 07:12:00,
2013-06-06 03:17:00,55.0,45.0,30.17,SSW,202,0.0,7.0,68,0.00,,,0.00,Rainwise IP-100,2013-06-06 07:17:00,
2013-06-06 03:22:00,55.0,45.0,30.17,SSW,202,0.0,6.0,68,0.00,,,0.00,Rainwise IP-100,2013-06-06 07:22:00,
2013-06-06 03:27:00,56.0,46.0,30.17,SW,225,1.0,4.0,68,0.00,,,0.00,Rainwise IP-100,2013-06-06 07:27:00,
2013-06-06 03:32:00,55.0,45.0,30.16,SSW,202,1.0,7.0,68,0.00,,,0.00,Rainwise IP-100,2013-06-06 07:32:00,
2013-06-06 03:37:00,56.0,45.0,30.16,South,180,0.0,6.0,67,0.00,,,0.00,Rainwise IP-100,2013-06-06 07:37:00,
2013-06-06 03:43:00,56.0,45.0,30.16,SW,225,2.0,9.0,66,0.00,,,0.00,Rainwise IP-100,2013-06-06 07:43:00,
2013-06-06 03:48:00,56.0,44.0,30.16,South,180,1.0,6.0,65,0.00,,,0.00,Rainwise IP-100,2013-06-06 07:48:00,
2013-06-06 03:53:00,56.0,45.0,30.16,SW,225,1.0,7.0,66,0.00,,,0.00,Rainwise IP-100,2013-06-06 07:53:00,
2013-06-06 03:58:00,56.0,45.0,30.16,SW,225,1.0,4.0,66,0.00,,,0.00,Rainwise IP-100,2013-06-06 07:58:00,
2013-06-06 04:03:00,56.0,44.0,30.17,South,180,0.0,4.0,64,0.00,,,0.00,Rainwise IP-100,2013-06-06 08:03:00,
2013-06-06 04:08:00,55.0,44.0,30.17,SSW,202,1.0,4.0,65,0.00,,,0.00,Rainwise IP-100,2013-06-06 08:08:00,
2013-06-06 04:13:00,55.0,43.0,30.18,SSW,202,0.0,1.0,64,0.00,,,0.00,Rainwise IP-100,2013-06-06 08:13:00,
2013-06-06 04:18:00,55.0,43.0,30.18,SW,225,0.0,0.0,64,0.00,,,0.00,Rainwise IP-100,2013-06-06 08:18:00,
2013-06-06 04:23:00,55.0,43.0,30.18,SW,225,0.0,0.0,63,0.00,,,0.00,Rainwise IP-100,2013-06-06 08:23:00,
2013-06-06 04:28:00,55.0,43.0,30.18,SW,225,0.0,0.0,63,0.00,,,0.00,Rainwise IP-100,2013-06-06 08:28:00,
2013-06-06 04:33:00,55.0,42.0,30.18,SSW,202,1.0,0.0,62,0.00,,,0.00,Rainwise IP-100,2013-06-06 08:33:00,
2013-06-06 04:38:00,55.0,42.0,30.18,SSW,202,0.0,2.0,61,0.00,,,0.00,Rainwise IP-100,2013-06-06 08:38:00,
2013-06-06 04:43:00,54.0,41.0,30.18,SSW,202,0.0,0.0,61,0.00,,,0.00,Rainwise IP-100,2013-06-06 08:43:00,
2013-06-06 04:48:00,54.0,41.0,30.18,SW,225,0.0,2.0,61,0.00,,,0.00,Rainwise IP-100,2013-06-06 08:48:00,
2013-06-06 04:53:00,55.0,41.0,30.18,SSW,202,0.0,1.0,60,0.00,,,0.00,Rainwise IP-100,2013-06-06 08:53:00,
2013-06-06 04:59:00,55.0,41.0,30.18,South,180,0.0,1.0,59,0.00,,,0.00,Rainwise IP-100,2013-06-06 08:59:00,
2013-06-06 05:04:00,55.0,41.0,30.18,South,180,0.0,0.0,59,0.00,,,0.00,Rainwise IP-100,2013-06-06 09:04:00,
2013-06-06 05:09:00,55.0,41.0,30.18,SSW,202,0.0,1.0,58,0.00,,,0.00,Rainwise IP-100,2013-06-06 09:09:00,
2013-06-06 05:14:00,55.0,40.0,30.18,South,180,0.0,1.0,56,0.00,,,0.00,Rainwise IP-100,2013-06-06 09:14:00,
2013-06-06 05:19:00,55.0,40.0,30.18,SSW,202,0.0,0.0,57,0.00,,,0.00,Rainwise IP-100,2013-06-06 09:19:00,
2013-06-06 05:24:00,55.0,39.0,30.18,SSW,202,0.0,0.0,55,0.00,,,0.00,Rainwise IP-100,2013-06-06 09:24:00,
2013-06-06 05:29:00,55.0,39.0,30.18,South,180,0.0,0.0,55,0.00,,,0.00,Rainwise IP-100,2013-06-06 09:29:00,
2013-06-06 05:34:00,55.0,39.0,30.18,South,180,0.0,1.0,54,0.00,,,0.00,Rainwise IP-100,2013-06-06 09:34:00,
2013-06-06 05:39:00,55.0,39.0,30.18,South,180,0.0,3.0,54,0.00,,,0.00,Rainwise IP-100,2013-06-06 09:39:00,
2013-06-06 05:44:00,56.0,38.0,30.18,South,180,1.0,4.0,52,0.00,,,0.00,Rainwise IP-100,2013-06-06 09:44:00,
2013-06-06 05:49:00,56.0,38.0,30.18,South,180,0.0,4.0,52,0.00,,,0.00,Rainwise IP-100,2013-06-06 09:49:00,
2013-06-06 05:54:00,56.0,38.0,30.18,South,180,0.0,1.0,51,0.00,,,0.00,Rainwise IP-100,2013-06-06 09:54:00,
2013-06-06 05:59:00,56.0,38.0,30.18,South,180,2.0,0.0,51,0.00,,,0.00,Rainwise IP-100,2013-06-06 09:59:00,
2013-06-06 06:04:00,56.0,38.0,30.18,South,180,0.0,3.0,51,0.00,,,0.00,Rainwise IP-100,2013-06-06 10:04:00,
2013-06-06 06:10:00,57.0,39.0,30.18,South,180,3.0,3.0,51,0.00,,,0.00,Rainwise IP-100,2013-06-06 10:10:00,
2013-06-06 06:15:00,57.0,38.0,30.17,South,180,1.0,3.0,49,0.00,,,0.00,Rainwise IP-100,2013-06-06 10:15:00,
2013-06-06 06:20:00,57.0,39.0,30.17,South,180,0.0,1.0,50,0.00,,,0.00,Rainwise IP-100,2013-06-06 10:20:00,
2013-06-06 06:25:00,58.0,40.0,30.18,SSE,157,0.0,2.0,50,0.00,,,0.00,Rainwise IP-100,2013-06-06 10:25:00,
2013-06-06 06:30:00,58.0,40.0,30.18,South,180,0.0,2.0,52,0.00,,,0.00,Rainwise IP-100,2013-06-06 10:30:00,
2013-06-06 06:35:00,59.0,42.0,30.18,South,180,0.0,2.0,53,0.00,,,0.00,Rainwise IP-100,2013-06-06 10:35:00,
2013-06-06 06:40:00,59.0,47.5,30.18,South,180,1.0,5.0,65,0.00,,,0.00,Rainwise IP-100,2013-06-06 10:40:00,
2013-06-06 06:45:00,59.0,44.0,30.18,SSE,157,1.0,5.0,57,0.00,,,0.00,Rainwise IP-100,2013-06-06 10:45:00,
2013-06-06 06:50:00,60.0,49.0,30.17,South,180,1.0,3.0,67,0.00,,,0.00,Rainwise IP-100,2013-06-06 10:50:00,
2013-06-06 06:55:00,60.0,46.0,30.17,SW,225,2.0,7.0,60,0.00,,,0.00,Rainwise IP-100,2013-06-06 10:55:00,
2013-06-06 07:00:00,60.0,47.0,30.17,SW,225,2.0,6.0,62,0.00,,,0.00,Rainwise IP-100,2013-06-06 11:00:00,
2013-06-06 07:05:00,60.0,47.5,30.18,South,180,0.0,6.0,64,0.00,,,0.00,Rainwise IP-100,2013-06-06 11:05:00,
2013-06-06 07:10:00,61.0,52.0,30.17,SSE,157,3.0,3.0,72,0.00,,,0.00,Rainwise IP-100,2013-06-06 11:10:00,
2013-06-06 07:15:00,61.0,50.5,30.17,SW,225,0.0,6.0,68,0.00,,,0.00,Rainwise IP-100,2013-06-06 11:15:00,
2013-06-06 07:21:00,62.0,53.5,30.17,SW,225,2.0,6.0,74,0.00,,,0.00,Rainwise IP-100,2013-06-06 11:21:00,
2013-06-06 07:26:00,61.0,52.0,30.17,SSE,157,0.0,6.0,72,0.00,,,0.00,Rainwise IP-100,2013-06-06 11:26:00,
2013-06-06 07:31:00,62.0,53.0,30.17,WSW,247,2.0,3.0,72,0.00,,,0.00,Rainwise IP-100,2013-06-06 11:31:00,
2013-06-06 07:36:00,62.0,54.0,30.18,SE,135,0.0,5.0,75,0.00,,,0.00,Rainwise IP-100,2013-06-06 11:36:00,
2013-06-06 07:41:00,62.0,53.5,30.16,SE,135,1.0,7.0,74,0.00,,,0.00,Rainwise IP-100,2013-06-06 11:41:00,
2013-06-06 07:46:00,63.0,54.5,30.16,South,180,3.0,5.0,74,0.00,,,0.00,Rainwise IP-100,2013-06-06 11:46:00,
2013-06-06 07:51:00,64.0,56.5,30.16,SSW,202,4.0,5.0,77,0.00,,,0.00,Rainwise IP-100,2013-06-06 11:51:00,
2013-06-06 07:56:00,64.0,56.5,30.16,SW,225,1.0,4.0,76,0.00,,,0.00,Rainwise IP-100,2013-06-06 11:56:00,
2013-06-06 08:02:00,64.0,57.0,30.16,SE,135,0.0,4.0,79,0.00,,,0.00,Rainwise IP-100,2013-06-06 12:02:00,
2013-06-06 08:07:00,65.0,57.5,30.16,SW,225,0.0,6.0,77,0.00,,,0.00,Rainwise IP-100,2013-06-06 12:07:00,
2013-06-06 08:12:00,65.0,59.0,30.16,SSE,157,3.0,5.0,80,0.00,,,0.00,Rainwise IP-100,2013-06-06 12:12:00,
2013-06-06 08:17:00,66.0,59.5,30.16,SW,225,1.0,5.0,79,0.00,,,0.00,Rainwise IP-100,2013-06-06 12:17:00,
2013-06-06 08:22:00,65.0,58.0,30.16,SE,135,3.0,6.0,79,0.00,,,0.00,Rainwise IP-100,2013-06-06 12:22:00,
2013-06-06 08:27:00,66.0,59.5,30.16,SSW,202,0.0,6.0,79,0.00,,,0.00,Rainwise IP-100,2013-06-06 12:27:00,
2013-06-06 08:32:00,65.0,58.0,30.17,SW,225,3.0,7.0,79,0.00,,,0.00,Rainwise IP-100,2013-06-06 12:32:00,
2013-06-06 08:37:00,65.0,59.0,30.17,SE,135,0.0,7.0,80,0.00,,,0.00,Rainwise IP-100,2013-06-06 12:37:00,
2013-06-06 08:42:00,65.0,59.0,30.18,ESE,112,0.0,7.0,80,0.00,,,0.00,Rainwise IP-100,2013-06-06 12:42:00,
2013-06-06 08:47:00,66.0,59.5,30.18,SE,135,0.0,6.0,80,0.00,,,0.00,Rainwise IP-100,2013-06-06 12:47:00,
2013-06-06 08:52:00,66.0,60.0,30.17,South,180,0.0,6.0,81,0.00,,,0.00,Rainwise IP-100,2013-06-06 12:52:00,
2013-06-06 08:57:00,67.0,61.0,30.17,South,180,4.0,4.0,81,0.00,,,0.00,Rainwise IP-100,2013-06-06 12:57:00,
2013-06-06 09:02:00,68.0,62.0,30.16,SW,225,1.0,4.0,81,0.00,,,0.00,Rainwise IP-100,2013-06-06 13:02:00,
2013-06-06 09:07:00,67.0,61.0,30.16,SSW,202,2.0,5.0,81,0.00,,,0.00,Rainwise IP-100,2013-06-06 13:07:00,
2013-06-06 09:12:00,67.0,61.0,30.16,East,90,6.0,7.0,81,0.00,,,0.00,Rainwise IP-100,2013-06-06 13:12:00,
2013-06-06 09:18:00,67.0,61.0,30.16,SE,135,2.0,7.0,81,0.00,,,0.00,Rainwise IP-100,2013-06-06 13:18:00,
2013-06-06 09:23:00,67.0,61.0,30.16,SSE,157,4.0,6.0,81,0.00,,,0.00,Rainwise IP-100,2013-06-06 13:23:00,
2013-06-06 09:28:00,67.0,61.0,30.16,SW,225,3.0,6.0,81,0.00,,,0.00,Rainwise IP-100,2013-06-06 13:28:00,
2013-06-06 09:33:00,68.0,62.0,30.14,ESE,112,4.0,5.0,81,0.00,,,0.00,Rainwise IP-100,2013-06-06 13:33:00,
2013-06-06 09:38:00,67.0,61.0,30.14,SE,135,4.0,7.0,81,0.00,,,0.00,Rainwise IP-100,2013-06-06 13:38:00,
2013-06-06 09:43:00,67.0,61.0,30.15,ESE,112,3.0,7.0,81,0.00,,,0.00,Rainwise IP-100,2013-06-06 13:43:00,
2013-06-06 09:48:00,66.0,60.0,30.15,East,90,8.0,8.0,82,0.00,,,0.00,Rainwise IP-100,2013-06-06 13:48:00,
2013-06-06 09:53:00,67.0,61.5,30.15,East,90,5.0,8.0,82,0.00,,,0.00,Rainwise IP-100,2013-06-06 13:53:00,
2013-06-06 09:58:00,67.0,61.5,30.15,East,90,4.0,7.0,82,0.00,,,0.00,Rainwise IP-100,2013-06-06 13:58:00,
2013-06-06 10:03:00,67.0,62.5,30.15,SE,135,4.0,8.0,85,0.00,,,0.00,Rainwise IP-100,2013-06-06 14:03:00,
2013-06-06 10:08:00,66.0,60.0,30.15,ESE,112,8.0,9.0,82,0.00,,,0.00,Rainwise IP-100,2013-06-06 14:08:00,
2013-06-06 10:13:00,67.0,67.0,30.15,SE,135,2.0,9.0,100,0.00,,,0.00,Rainwise IP-100,2013-06-06 14:13:00,
2013-06-06 10:18:00,68.0,68.0,30.15,South,180,0.0,9.0,100,0.00,,,0.00,Rainwise IP-100,2013-06-06 14:18:00,
2013-06-06 10:23:00,68.0,63.5,30.15,SE,135,2.0,6.0,86,0.00,,,0.00,Rainwise IP-100,2013-06-06 14:23:00,
2013-06-06 10:28:00,68.0,68.0,30.15,South,180,6.0,8.0,100,0.00,,,0.00,Rainwise IP-100,2013-06-06 14:28:00,
2013-06-06 10:34:00,68.0,68.0,30.15,South,180,6.0,7.0,100,0.00,,,0.00,Rainwise IP-100,2013-06-06 14:34:00,
2013-06-06 10:39:00,68.0,68.0,30.14,SW,225,1.0,9.0,100,0.00,,,0.00,Rainwise IP-100,2013-06-06 14:39:00,
2013-06-06 10:44:00,68.0,68.0,30.15,South,180,1.0,9.0,100,0.00,,,0.00,Rainwise IP-100,2013-06-06 14:44:00,
2013-06-06 10:49:00,68.0,65.5,30.15,South,180,0.0,5.0,92,0.00,,,0.00,Rainwise IP-100,2013-06-06 14:49:00,
2013-06-06 10:54:00,68.0,67.5,30.14,SE,135,6.0,9.0,98,0.00,,,0.00,Rainwise IP-100,2013-06-06 14:54:00,
2013-06-06 10:59:00,66.0,60.5,30.14,SE,135,8.0,11.0,83,0.00,,,0.00,Rainwise IP-100,2013-06-06 14:59:00,
2013-06-06 11:04:00,66.0,66.0,30.16,SE,135,5.0,10.0,100,0.00,,,0.00,Rainwise IP-100,2013-06-06 15:04:00,
2013-06-06 11:09:00,67.0,62.0,30.16,SSE,157,2.0,9.0,83,0.00,,,0.00,Rainwise IP-100,2013-06-06 15:09:00,
2013-06-06 11:14:00,67.0,67.0,30.16,SE,135,5.0,8.0,100,0.00,,,0.00,Rainwise IP-100,2013-06-06 15:14:00,
2013-06-06 11:19:00,66.0,66.0,30.16,East,90,8.0,8.0,100,0.00,,,0.00,Rainwise IP-100,2013-06-06 15:19:00,
2013-06-06 11:24:00,68.0,68.0,30.16,South,180,5.0,9.0,100,0.00,,,0.00,Rainwise IP-100,2013-06-06 15:24:00,
2013-06-06 11:29:00,68.0,62.5,30.16,East,90,1.0,8.0,83,0.00,,,0.00,Rainwise IP-100,2013-06-06 15:29:00,
2013-06-06 11:34:00,67.0,62.0,30.16,ENE,67,1.0,9.0,83,0.00,,,0.00,Rainwise IP-100,2013-06-06 15:34:00,
2013-06-06 11:39:00,68.0,68.0,30.16,SE,135,6.0,10.0,100,0.00,,,0.00,Rainwise IP-100,2013-06-06 15:39:00,
2013-06-06 11:44:00,66.0,66.0,30.16,East,90,7.0,9.0,100,0.00,,,0.00,Rainwise IP-100,2013-06-06 15:44:00,
2013-06-06 11:50:00,66.0,66.0,30.16,South,180,5.0,10.0,100,0.00,,,0.00,Rainwise IP-100,2013-06-06 15:50:00,
2013-06-06 11:55:00,66.0,66.0,30.17,East,90,6.0,11.0,100,0.00,,,0.00,Rainwise IP-100,2013-06-06 15:55:00,
2013-06-06 12:00:00,66.0,66.0,30.17,SE,135,10.0,11.0,100,0.00,,,0.00,Rainwise IP-100,2013-06-06 16:00:00,
2013-06-06 12:05:00,66.0,66.0,30.17,SW,225,6.0,12.0,100,0.00,,,0.00,Rainwise IP-100,2013-06-06 16:05:00,
2013-06-06 12:10:00,66.0,66.0,30.17,SE,135,9.0,13.0,100,0.00,,,0.00,Rainwise IP-100,2013-06-06 16:10:00,
2013-06-06 12:15:00,66.0,66.0,30.17,SE,135,9.0,12.0,100,0.00,,,0.00,Rainwise IP-100,2013-06-06 16:15:00,
2013-06-06 12:20:00,66.0,66.0,30.17,South,180,3.0,12.0,100,0.00,,,0.00,Rainwise IP-100,2013-06-06 16:20:00,
2013-06-06 12:25:00,65.0,59.5,30.17,SE,135,6.0,16.0,83,0.00,,,0.00,Rainwise IP-100,2013-06-06 16:25:00,
2013-06-06 12:30:00,65.0,65.0,30.16,South,180,7.0,16.0,100,0.00,,,0.00,Rainwise IP-100,2013-06-06 16:30:00,
2013-06-06 12:35:00,65.0,65.0,30.16,SE,135,9.0,15.0,100,0.00,,,0.00,Rainwise IP-100,2013-06-06 16:35:00,
2013-06-06 12:40:00,65.0,65.0,30.16,SSE,157,9.0,13.0,100,0.00,,,0.00,Rainwise IP-100,2013-06-06 16:40:00,
2013-06-06 12:45:00,65.0,65.0,30.16,East,90,5.0,13.0,100,0.00,,,0.00,Rainwise IP-100,2013-06-06 16:45:00,
2013-06-06 12:50:00,65.0,64.5,30.16,ESE,112,10.0,14.0,99,0.00,,,0.00,Rainwise IP-100,2013-06-06 16:50:00,
2013-06-06 12:55:00,66.0,64.0,30.16,East,90,11.0,14.0,94,0.00,,,0.00,Rainwise IP-100,2013-06-06 16:55:00,
2013-06-06 13:00:00,65.0,65.0,30.16,SE,135,10.0,13.0,100,0.00,,,0.00,Rainwise IP-100,2013-06-06 17:00:00,
2013-06-06 13:06:00,66.0,66.0,30.16,East,90,5.0,12.0,100,0.00,,,0.00,Rainwise IP-100,2013-06-06 17:06:00,
2013-06-06 13:11:00,66.0,66.0,30.15,SE,135,3.0,8.0,100,0.00,,,0.00,Rainwise IP-100,2013-06-06 17:11:00,
2013-06-06 13:16:00,67.0,67.0,30.15,East,90,3.0,9.0,100,0.00,,,0.00,Rainwise IP-100,2013-06-06 17:16:00,
2013-06-06 13:21:00,66.0,66.0,30.14,ESE,112,9.0,18.0,100,0.00,,,0.00,Rainwise IP-100,2013-06-06 17:21:00,
2013-06-06 13:26:00,67.0,67.0,30.14,SSE,157,6.0,11.0,100,0.00,,,0.00,Rainwise IP-100,2013-06-06 17:26:00,
2013-06-06 13:31:00,66.0,66.0,30.14,SE,135,12.0,12.0,100,0.00,,,0.00,Rainwise IP-100,2013-06-06 17:31:00,
2013-06-06 13:36:00,67.0,67.0,30.14,SE,135,6.0,13.0,100,0.00,,,0.00,Rainwise IP-100,2013-06-06 17:36:00,
2013-06-06 13:41:00,66.0,66.0,30.14,SE,135,14.0,14.0,100,0.00,,,0.00,Rainwise IP-100,2013-06-06 17:41:00,
2013-06-06 13:46:00,67.0,67.0,30.14,SW,225,5.0,16.0,100,0.00,,,0.00,Rainwise IP-100,2013-06-06 17:46:00,
2013-06-06 13:51:00,67.0,67.0,30.14,ESE,112,3.0,12.0,100,0.00,,,0.00,Rainwise IP-100,2013-06-06 17:51:00,
2013-06-06 13:56:00,66.0,66.0,30.14,SE,135,7.0,16.0,100,0.00,,,0.00,Rainwise IP-100,2013-06-06 17:56:00,
2013-06-06 14:01:00,66.0,66.0,30.14,ENE,67,4.0,13.0,100,0.00,,,0.00,Rainwise IP-100,2013-06-06 18:01:00,
2013-06-06 14:06:00,67.0,67.0,30.14,East,90,9.0,14.0,100,0.00,,,0.00,Rainwise IP-100,2013-06-06 18:06:00,
2013-06-06 14:11:00,66.0,66.0,30.14,NE,45,3.0,18.0,100,0.00,,,0.00,Rainwise IP-100,2013-06-06 18:11:00,
2013-06-06 14:16:00,66.0,66.0,30.14,SE,135,6.0,15.0,100,0.00,,,0.00,Rainwise IP-100,2013-06-06 18:16:00,
2013-06-06 14:22:00,66.0,66.0,30.14,South,180,10.0,17.0,100,0.00,,,0.00,Rainwise IP-100,2013-06-06 18:22:00,
2013-06-06 14:27:00,66.0,66.0,30.14,SE,135,0.0,16.0,100,0.00,,,0.00,Rainwise IP-100,2013-06-06 18:27:00,
2013-06-06 14:32:00,66.0,66.0,30.13,SE,135,7.0,16.0,100,0.00,,,0.00,Rainwise IP-100,2013-06-06 18:32:00,
2013-06-06 14:37:00,66.0,66.0,30.13,SSE,157,8.0,15.0,100,0.00,,,0.00,Rainwise IP-100,2013-06-06 18:37:00,
2013-06-06 14:42:00,66.0,66.0,30.12,SE,135,6.0,19.0,100,0.00,,,0.00,Rainwise IP-100,2013-06-06 18:42:00,
2013-06-06 14:47:00,66.0,66.0,30.12,SE,135,10.0,19.0,100,0.00,,,0.00,Rainwise IP-100,2013-06-06 18:47:00,
2013-06-06 14:52:00,65.0,65.0,30.13,SE,135,6.0,18.0,100,0.00,,,0.00,Rainwise IP-100,2013-06-06 18:52:00,
2013-06-06 14:57:00,64.0,64.0,30.13,East,90,6.0,17.0,100,0.00,,,0.00,Rainwise IP-100,2013-06-06 18:57:00,
2013-06-06 15:02:00,65.0,65.0,30.12,WSW,247,1.0,16.0,100,0.00,,,0.00,Rainwise IP-100,2013-06-06 19:02:00,
2013-06-06 15:07:00,66.0,66.0,30.12,SSE,157,7.0,12.0,100,0.00,,,0.00,Rainwise IP-100,2013-06-06 19:07:00,
2013-06-06 15:12:00,65.0,65.0,30.12,ESE,112,4.0,19.0,100,0.00,,,0.00,Rainwise IP-100,2013-06-06 19:12:00,
2013-06-06 15:17:00,66.0,66.0,30.12,SE,135,12.0,19.0,100,0.00,,,0.00,Rainwise IP-100,2013-06-06 19:17:00,
2013-06-06 15:22:00,65.0,65.0,30.12,South,180,5.0,15.0,100,0.00,,,0.00,Rainwise IP-100,2013-06-06 19:22:00,
2013-06-06 15:27:00,66.0,66.0,30.12,East,90,4.0,15.0,100,0.00,,,0.00,Rainwise IP-100,2013-06-06 19:27:00,
2013-06-06 15:32:00,65.0,65.0,30.12,South,180,6.0,15.0,100,0.00,,,0.00,Rainwise IP-100,2013-06-06 19:32:00,
2013-06-06 15:38:00,66.0,66.0,30.12,ESE,112,1.0,12.0,100,0.00,,,0.00,Rainwise IP-100,2013-06-06 19:38:00,
2013-06-06 15:43:00,66.0,66.0,30.12,East,90,4.0,10.0,100,0.00,,,0.00,Rainwise IP-100,2013-06-06 19:43:00,
2013-06-06 15:46:00,66.0,66.0,30.12,SE,135,8.0,13.0,100,0.00,,,0.00,Rainwise IP-100,2013-06-06 19:46:00,
2013-06-06 15:51:00,65.0,65.0,30.12,South,180,6.0,17.0,100,0.00,,,0.00,Rainwise IP-100,2013-06-06 19:51:00,
2013-06-06 15:57:00,65.0,59.5,30.12,SE,135,4.0,16.0,83,0.00,,,0.00,Rainwise IP-100,2013-06-06 19:57:00,
2013-06-06 16:02:00,65.0,65.0,30.12,South,180,1.0,14.0,100,0.00,,,0.00,Rainwise IP-100,2013-06-06 20:02:00,
2013-06-06 16:07:00,64.0,64.0,30.12,SE,135,9.0,16.0,100,0.00,,,0.00,Rainwise IP-100,2013-06-06 20:07:00,
2013-06-06 16:12:00,64.0,64.0,30.11,SE,135,10.0,18.0,100,0.00,,,0.00,Rainwise IP-100,2013-06-06 20:12:00,
2013-06-06 16:17:00,65.0,65.0,30.11,SSW,202,12.0,13.0,100,0.00,,,0.00,Rainwise IP-100,2013-06-06 20:17:00,
2013-06-06 16:22:00,63.0,63.0,30.11,SE,135,8.0,18.0,100,0.00,,,0.00,Rainwise IP-100,2013-06-06 20:22:00,
2013-06-06 16:27:00,64.0,64.0,30.11,ESE,112,2.0,14.0,100,0.00,,,0.00,Rainwise IP-100,2013-06-06 20:27:00,
2013-06-06 16:32:00,64.0,64.0,30.10,ESE,112,14.0,18.0,100,0.00,,,0.00,Rainwise IP-100,2013-06-06 20:32:00,
2013-06-06 16:37:00,64.0,64.0,30.10,ESE,112,9.0,16.0,100,0.00,,,0.00,Rainwise IP-100,2013-06-06 20:37:00,
2013-06-06 16:42:00,64.0,64.0,30.11,South,180,2.0,14.0,100,0.00,,,0.00,Rainwise IP-100,2013-06-06 20:42:00,
2013-06-06 16:47:00,63.0,63.0,30.11,SSE,157,9.0,14.0,100,0.00,,,0.00,Rainwise IP-100,2013-06-06 20:47:00,
2013-06-06 16:52:00,63.0,63.0,30.11,SSE,157,14.0,15.0,100,0.00,,,0.00,Rainwise IP-100,2013-06-06 20:52:00,
2013-06-06 16:57:00,63.0,63.0,30.11,South,180,8.0,17.0,100,0.00,,,0.00,Rainwise IP-100,2013-06-06 20:57:00,
2013-06-06 17:02:00,63.0,63.0,30.11,South,180,5.0,17.0,100,0.00,,,0.00,Rainwise IP-100,2013-06-06 21:02:00,
2013-06-06 17:08:00,63.0,63.0,30.11,SSE,157,4.0,14.0,100,0.00,,,0.00,Rainwise IP-100,2013-06-06 21:08:00,
2013-06-06 17:13:00,62.0,62.0,30.10,SE,135,1.0,15.0,100,0.00,,,0.00,Rainwise IP-100,2013-06-06 21:13:00,
2013-06-06 17:18:00,62.0,56.5,30.10,SE,135,9.0,12.0,82,0.00,,,0.00,Rainwise IP-100,2013-06-06 21:18:00,
2013-06-06 17:23:00,62.0,56.5,30.11,SSE,157,8.0,13.0,82,0.00,,,0.00,Rainwise IP-100,2013-06-06 21:23:00,
2013-06-06 17:28:00,62.0,62.0,30.11,SE,135,5.0,12.0,100,0.00,,,0.00,Rainwise IP-100,2013-06-06 21:28:00,
2013-06-06 17:34:00,62.0,62.0,30.10,ESE,112,6.0,19.0,100,0.00,,,0.00,Rainwise IP-100,2013-06-06 21:34:00,
2013-06-06 17:39:00,61.0,61.0,30.10,ESE,112,6.0,12.0,100,0.00,,,0.00,Rainwise IP-100,2013-06-06 21:39:00,
2013-06-06 17:44:00,62.0,62.0,30.10,South,180,3.0,15.0,100,0.00,,,0.00,Rainwise IP-100,2013-06-06 21:44:00,
2013-06-06 17:49:00,62.0,62.0,30.10,ESE,112,10.0,12.0,100,0.00,,,0.00,Rainwise IP-100,2013-06-06 21:49:00,
2013-06-06 17:54:00,62.0,62.0,30.10,ESE,112,6.0,12.0,100,0.00,,,0.00,Rainwise IP-100,2013-06-06 21:54:00,
2013-06-06 17:59:00,62.0,62.0,30.10,South,180,0.0,9.0,100,0.00,,,0.00,Rainwise IP-100,2013-06-06 21:59:00,
2013-06-06 18:04:00,61.0,61.0,30.10,SE,135,3.0,16.0,100,0.00,,,0.00,Rainwise IP-100,2013-06-06 22:04:00,
2013-06-06 18:09:00,61.0,61.0,30.10,SE,135,7.0,14.0,100,0.00,,,0.00,Rainwise IP-100,2013-06-06 22:09:00,
2013-06-06 18:14:00,61.0,61.0,30.12,SE,135,9.0,13.0,100,0.00,,,0.00,Rainwise IP-100,2013-06-06 22:14:00,
2013-06-06 18:19:00,61.0,61.0,30.12,SE,135,1.0,12.0,100,0.00,,,0.00,Rainwise IP-100,2013-06-06 22:19:00,
2013-06-06 18:24:00,61.0,61.0,30.11,SE,135,3.0,10.0,100,0.00,,,0.00,Rainwise IP-100,2013-06-06 22:24:00,
2013-06-06 18:29:00,61.0,61.0,30.11,East,90,3.0,13.0,100,0.00,,,0.00,Rainwise IP-100,2013-06-06 22:29:00,
2013-06-06 18:34:00,61.0,61.0,30.12,SSE,157,8.0,8.0,100,0.00,,,0.00,Rainwise IP-100,2013-06-06 22:34:00,
2013-06-06 18:39:00,61.0,61.0,30.12,East,90,0.0,15.0,100,0.00,,,0.00,Rainwise IP-100,2013-06-06 22:39:00,
2013-06-06 18:44:00,61.0,61.0,30.12,SE,135,2.0,9.0,100,0.00,,,0.00,Rainwise IP-100,2013-06-06 22:44:00,
2013-06-06 18:50:00,60.0,60.0,30.12,ESE,112,0.0,14.0,100,0.00,,,0.00,Rainwise IP-100,2013-06-06 22:50:00,
2013-06-06 18:55:00,60.0,60.0,30.12,SE,135,7.0,13.0,100,0.00,,,0.00,Rainwise IP-100,2013-06-06 22:55:00,
2013-06-06 19:00:00,60.0,60.0,30.12,SE,135,8.0,14.0,100,0.00,,,0.00,Rainwise IP-100,2013-06-06 23:00:00,
2013-06-06 19:05:00,60.0,60.0,30.12,SE,135,6.0,11.0,100,0.00,,,0.00,Rainwise IP-100,2013-06-06 23:05:00,
2013-06-06 19:10:00,60.0,60.0,30.12,ESE,112,8.0,13.0,100,0.00,,,0.00,Rainwise IP-100,2013-06-06 23:10:00,
2013-06-06 19:15:00,60.0,60.0,30.12,SE,135,3.0,15.0,100,0.00,,,0.00,Rainwise IP-100,2013-06-06 23:15:00,
2013-06-06 19:21:00,60.0,60.0,30.12,SE,135,4.0,10.0,100,0.00,,,0.00,Rainwise IP-100,2013-06-06 23:21:00,
2013-06-06 19:26:00,59.0,59.0,30.12,SE,135,9.0,15.0,100,0.00,,,0.00,Rainwise IP-100,2013-06-06 23:26:00,
2013-06-06 19:31:00,60.0,60.0,30.12,SE,135,1.0,12.0,100,0.00,,,0.00,Rainwise IP-100,2013-06-06 23:31:00,
2013-06-06 19:36:00,59.0,59.0,30.12,SE,135,0.0,10.0,100,0.00,,,0.00,Rainwise IP-100,2013-06-06 23:36:00,
2013-06-06 19:41:00,59.0,59.0,30.12,SE,135,7.0,11.0,100,0.00,,,0.00,Rainwise IP-100,2013-06-06 23:41:00,
2013-06-06 19:46:00,59.0,59.0,30.13,South,180,6.0,12.0,100,0.00,,,0.00,Rainwise IP-100,2013-06-06 23:46:00,
2013-06-06 19:51:00,59.0,59.0,30.12,SE,135,5.0,12.0,100,0.00,,,0.00,Rainwise IP-100,2013-06-06 23:51:00,
2013-06-06 19:56:00,59.0,59.0,30.12,SE,135,7.0,12.0,100,0.00,,,0.00,Rainwise IP-100,2013-06-06 23:56:00,
2013-06-06 20:01:00,59.0,59.0,30.12,ESE,112,6.0,14.0,100,0.00,,,0.00,Rainwise IP-100,2013-06-07 00:01:00,
2013-06-06 20:07:00,59.0,59.0,30.12,SE,135,7.0,11.0,100,0.00,,,0.00,Rainwise IP-100,2013-06-07 00:07:00,
2013-06-06 20:12:00,59.0,59.0,30.12,SE,135,7.0,11.0,100,0.00,,,0.00,Rainwise IP-100,2013-06-07 00:12:00,
2013-06-06 20:17:00,59.0,59.0,30.12,SE,135,8.0,12.0,100,0.00,,,0.00,Rainwise IP-100,2013-06-07 00:17:00,
2013-06-06 20:23:00,59.0,59.0,30.12,SE,135,1.0,10.0,100,0.00,,,0.00,Rainwise IP-100,2013-06-07 00:23:00,
2013-06-06 20:28:00,59.0,59.0,30.12,East,90,4.0,12.0,100,0.00,,,0.00,Rainwise IP-100,2013-06-07 00:28:00,
2013-06-06 20:33:00,59.0,59.0,30.12,SE,135,6.0,11.0,100,0.00,,,0.00,Rainwise IP-100,2013-06-07 00:33:00,
2013-06-06 20:38:00,59.0,59.0,30.12,South,180,1.0,10.0,100,0.00,,,0.00,Rainwise IP-100,2013-06-07 00:38:00,
2013-06-06 20:43:00,59.0,59.0,30.12,SSE,157,6.0,9.0,100,0.00,,,0.00,Rainwise IP-100,2013-06-07 00:43:00,
2013-06-06 20:48:00,59.0,59.0,30.12,SE,135,6.0,9.0,100,0.00,,,0.00,Rainwise IP-100,2013-06-07 00:48:00,
2013-06-06 20:53:00,59.0,59.0,30.12,SSE,157,5.0,10.0,100,0.00,,,0.00,Rainwise IP-100,2013-06-07 00:53:00,
2013-06-06 20:58:00,59.0,59.0,30.12,SE,135,0.0,10.0,100,0.00,,,0.00,Rainwise IP-100,2013-06-07 00:58:00,
2013-06-06 21:03:00,59.0,59.0,30.12,SE,135,6.0,11.0,100,0.00,,,0.00,Rainwise IP-100,2013-06-07 01:03:00,
2013-06-06 21:08:00,59.0,59.0,30.12,SE,135,6.0,10.0,100,0.00,,,0.00,Rainwise IP-100,2013-06-07 01:08:00,
2013-06-06 21:13:00,59.0,59.0,30.12,SE,135,6.0,9.0,100,0.00,,,0.00,Rainwise IP-100,2013-06-07 01:13:00,
2013-06-06 21:19:00,59.0,59.0,30.12,SE,135,10.0,10.0,100,0.00,,,0.00,Rainwise IP-100,2013-06-07 01:19:00,
2013-06-06 21:24:00,59.0,59.0,30.12,ESE,112,3.0,12.0,100,0.00,,,0.00,Rainwise IP-100,2013-06-07 01:24:00,
2013-06-06 21:29:00,59.0,59.0,30.12,SE,135,7.0,10.0,100,0.00,,,0.00,Rainwise IP-100,2013-06-07 01:29:00,
2013-06-06 21:34:00,59.0,59.0,30.12,East,90,4.0,10.0,100,0.00,,,0.00,Rainwise IP-100,2013-06-07 01:34:00,
2013-06-06 21:39:00,59.0,59.0,30.12,East,90,5.0,10.0,100,0.00,,,0.00,Rainwise IP-100,2013-06-07 01:39:00,
2013-06-06 21:45:00,59.0,59.0,30.12,SE,135,0.0,9.0,100,0.00,,,0.00,Rainwise IP-100,2013-06-07 01:45:00,
2013-06-06 21:50:00,59.0,59.0,30.12,SE,135,8.0,11.0,100,0.00,,,0.00,Rainwise IP-100,2013-06-07 01:50:00,
2013-06-06 21:55:00,59.0,59.0,30.12,ESE,112,7.0,8.0,100,0.00,,,0.00,Rainwise IP-100,2013-06-07 01:55:00,
2013-06-06 22:00:00,59.0,59.0,30.12,ESE,112,7.0,9.0,100,0.00,,,0.00,Rainwise IP-100,2013-06-07 02:00:00,
2013-06-06 22:05:00,59.0,59.0,30.12,SE,135,7.0,9.0,100,0.00,,,0.00,Rainwise IP-100,2013-06-07 02:05:00,
2013-06-06 22:10:00,58.0,58.0,30.12,SE,135,2.0,7.0,100,0.00,,,0.00,Rainwise IP-100,2013-06-07 02:10:00,
2013-06-06 22:15:00,58.0,58.0,30.12,East,90,7.0,10.0,100,0.00,,,0.00,Rainwise IP-100,2013-06-07 02:15:00,
2013-06-06 22:20:00,58.0,58.0,30.11,ESE,112,7.0,10.0,100,0.00,,,0.00,Rainwise IP-100,2013-06-07 02:20:00,
2013-06-06 22:25:00,58.0,58.0,30.11,ESE,112,7.0,11.0,100,0.00,,,0.00,Rainwise IP-100,2013-06-07 02:25:00,
2013-06-06 22:30:00,58.0,58.0,30.11,SSE,157,6.0,11.0,100,0.00,,,0.00,Rainwise IP-100,2013-06-07 02:30:00,
2013-06-06 22:35:00,58.0,58.0,30.10,SE,135,2.0,9.0,100,0.00,,,0.00,Rainwise IP-100,2013-06-07 02:35:00,
2013-06-06 22:40:00,58.0,58.0,30.10,SE,135,0.0,8.0,100,0.00,,,0.00,Rainwise IP-100,2013-06-07 02:40:00,
2013-06-06 22:46:00,58.0,58.0,30.10,East,90,9.0,12.0,100,0.00,,,0.00,Rainwise IP-100,2013-06-07 02:46:00,
2013-06-06 22:51:00,58.0,58.0,30.10,East,90,7.0,11.0,100,0.00,,,0.00,Rainwise IP-100,2013-06-07 02:51:00,
2013-06-06 22:56:00,58.0,58.0,30.10,South,180,1.0,11.0,100,0.00,,,0.00,Rainwise IP-100,2013-06-07 02:56:00,
2013-06-06 23:01:00,58.0,58.0,30.08,SE,135,6.0,10.0,100,0.00,,,0.00,Rainwise IP-100,2013-06-07 03:01:00,
2013-06-06 23:06:00,58.0,58.0,30.08,SE,135,5.0,10.0,100,0.00,,,0.00,Rainwise IP-100,2013-06-07 03:06:00,
2013-06-06 23:11:00,58.0,58.0,30.09,ESE,112,7.0,12.0,100,0.00,,,0.00,Rainwise IP-100,2013-06-07 03:11:00,
2013-06-06 23:16:00,58.0,58.0,30.09,SSE,157,3.0,10.0,100,0.00,,,0.00,Rainwise IP-100,2013-06-07 03:16:00,
2013-06-06 23:21:00,58.0,58.0,30.08,SE,135,6.0,10.0,100,0.00,,,0.00,Rainwise IP-100,2013-06-07 03:21:00,
2013-06-06 23:27:00,57.0,57.0,30.08,SE,135,0.0,11.0,100,0.00,,,0.00,Rainwise IP-100,2013-06-07 03:27:00,
2013-06-06 23:33:00,57.0,57.0,30.08,ESE,112,2.0,15.0,100,0.00,,,0.00,Rainwise IP-100,2013-06-07 03:33:00,
2013-06-06 23:38:00,57.0,57.0,30.08,East,90,6.0,15.0,100,0.00,,,0.00,Rainwise IP-100,2013-06-07 03:38:00,
2013-06-06 23:43:00,57.0,57.0,30.08,SSW,202,2.0,12.0,100,0.00,,,0.00,Rainwise IP-100,2013-06-07 03:43:00,
2013-06-06 23:48:00,57.0,57.0,30.08,East,90,0.0,15.0,100,0.00,,,0.00,Rainwise IP-100,2013-06-07 03:48:00,
2013-06-06 23:53:00,57.0,57.0,30.08,SSE,157,5.0,11.0,100,0.00,,,0.00,Rainwise IP-100,2013-06-07 03:53:00,
2013-06-06 23:58:00,57.0,57.0,30.08,SE,135,1.0,10.0,100,0.00,,,0.00,Rainwise IP-100,2013-06-07 03:58:00,